When you browse on this site, cookies collect data to enhance your experience and personalize the content and advertising you see.
Visit our Privacy Policy to learn more. By continuing to use the site, you agree to this use of cookies and data.
  • In Czech Republic
  • List of Countries
  • For 7 days
  • Water Temperature
  • Weather Map
  • Weather Widgets
  • user-avatar
    Login

    Hourly Weather Solden

    Today, 6 April, Monday

    Time Temperature Precipitation Wind Pressure Humidity
    00:00 -3°C° 0 mm 1 mps 584 mmHg 79%
    01:00 -4°C° 0 mm 1 mps 583 mmHg 80%
    02:00 -4°C° 0 mm 1 mps 583 mmHg 80%
    03:00 -6°C° 0 mm 1 mps 583 mmHg 80%
    04:00 -6°C° 0 mm 1 mps 583 mmHg 80%
    05:00 -4°C° 0 mm 1 mps 583 mmHg 75%
    06:00 -4°C° 0 mm 1 mps 584 mmHg 70%
    07:00 -4°C° 0 mm 0 mps 585 mmHg 66%
    08:00 -1°C° 0 mm 1 mps 585 mmHg 63%
    09:00 +1°C° 0 mm 1 mps 586 mmHg 61%
    10:00 +3°C° 0 mm 1 mps 587 mmHg 58%
    11:00 +4°C° 0 mm 1 mps 588 mmHg 57%
    12:00 +5°C° 0 mm 1 mps 588 mmHg 55%
    13:00 +6°C° 0 mm 1 mps 588 mmHg 53%
    14:00 +6°C° 0 mm 1 mps 588 mmHg 53%
    15:00 +6°C° 0 mm 1 mps 588 mmHg 53%
    16:00 +6°C° 0 mm 1 mps 588 mmHg 53%
    17:00 +4°C° 0 mm 1 mps 587 mmHg 59%
    18:00 +2°C° 0 mm 1 mps 587 mmHg 66%
    19:00 -1°C° 0 mm 0 mps 586 mmHg 72%
    20:00 -2°C° 0 mm 0 mps 586 mmHg 73%
    21:00 -1°C° 0 mm 1 mps 587 mmHg 74%
    22:00 -1°C° 0 mm 1 mps 587 mmHg 75%
    23:00 -2°C° 0 mm 1 mps 587 mmHg 76%

    Tomorrow, 7 April, Tuesday

    Time Temperature Precipitation Wind Pressure Humidity
    00:00 -2°C° 0 mm 1 mps 587 mmHg 76%
    01:00 -2°C° 0 mm 1 mps 587 mmHg 76%
    02:00 -2°C° 0 mm 1 mps 587 mmHg 76%
    03:00 -3°C° 0 mm 1 mps 586 mmHg 75%
    04:00 -3°C° 0 mm 1 mps 586 mmHg 74%
    05:00 -2°C° 0 mm 1 mps 587 mmHg 73%
    06:00 -1°C° 0 mm 1 mps 587 mmHg 72%
    07:00 -1°C° 0 mm 1 mps 588 mmHg 70%
    08:00 +2°C° 0 mm 1 mps 588 mmHg 65%
    09:00 +4°C° 0 mm 1 mps 589 mmHg 60%
    10:00 +6°C° 0 mm 1 mps 590 mmHg 54%
    11:00 +7°C° 0 mm 1 mps 591 mmHg 51%
    12:00 +8°C° 0 mm 1 mps 591 mmHg 49%
    13:00 +9°C° 0 mm 1 mps 591 mmHg 46%
    14:00 +9°C° 0 mm 1 mps 591 mmHg 46%
    15:00 +8°C° 0 mm 1 mps 591 mmHg 45%
    16:00 +7°C° 0 mm 2 mps 590 mmHg 45%
    17:00 +6°C° 0 mm 1 mps 589 mmHg 56%
    18:00 +4°C° 0 mm 1 mps 588 mmHg 67%
    19:00 +1°C° 0 mm 1 mps 587 mmHg 78%
    20:00 +1°C° 0 mm 1 mps 587 mmHg 81%
    21:00 0°C° 0 mm 1 mps 587 mmHg 83%
    22:00 -1°C° 0 mm 0 mps 587 mmHg 86%
    23:00 -2°C° 0 mm 0 mps 587 mmHg 87%

    Day after tomorrow, 8 April, Wednesday

    Time Temperature Precipitation Wind Pressure Humidity
    00:00 -2°C° 0 mm 0 mps 587 mmHg 88%
    01:00 -2°C° 0 mm 0 mps 587 mmHg 89%
    02:00 -2°C° 0 mm 0 mps 587 mmHg 88%
    03:00 -2°C° 0 mm 1 mps 586 mmHg 87%
    04:00 -2°C° 0 mm 1 mps 586 mmHg 86%
    05:00 -1°C° 0 mm 1 mps 586 mmHg 83%
    06:00 -1°C° 0 mm 0 mps 587 mmHg 79%
    07:00 -1°C° 0 mm 0 mps 587 mmHg 76%
    08:00 +2°C° 0 mm 1 mps 588 mmHg 69%
    09:00 +4°C° 0 mm 1 mps 588 mmHg 61%
    10:00 +7°C° 0 mm 1 mps 589 mmHg 54%
    11:00 +7°C° 0 mm 1 mps 589 mmHg 51%
    12:00 +8°C° 0 mm 1 mps 589 mmHg 48%
    13:00 +9°C° 0 mm 1 mps 590 mmHg 45%
    14:00 +9°C° 0 mm 1 mps 589 mmHg 46%
    15:00 +9°C° 0 mm 1 mps 589 mmHg 48%
    16:00 +8°C° 0 mm 1 mps 588 mmHg 50%
    17:00 +6°C° 0.1 mm 1 mps 587 mmHg 60%
    18:00 +4°C° 0.1 mm 1 mps 586 mmHg 71%
    19:00 +2°C° 0.1 mm 1 mps 585 mmHg 81%
    20:00 +1°C° 0 mm 0 mps 585 mmHg 83%
    21:00 0°C° 0 mm 0 mps 585 mmHg 85%
    22:00 0°C° 0 mm 0 mps 585 mmHg 87%
    23:00 -1°C° 0 mm 0 mps 585 mmHg 87%

    9 April, Thursday

    Time Temperature Precipitation Wind Pressure Humidity
    00:00 -1°C° 0 mm 0 mps 585 mmHg 88%
    01:00 -1°C° 0 mm 0 mps 585 mmHg 89%
    02:00 0°C° 0 mm 1 mps 585 mmHg 89%
    03:00 0°C° 0 mm 1 mps 584 mmHg 89%
    04:00 0°C° 0 mm 1 mps 584 mmHg 89%
    05:00 0°C° 0 mm 1 mps 584 mmHg 87%
    06:00 +1°C° 0 mm 1 mps 585 mmHg 84%
    07:00 +1°C° 0 mm 1 mps 585 mmHg 81%
    08:00 +3°C° 0 mm 1 mps 586 mmHg 74%
    09:00 +5°C° 0 mm 1 mps 587 mmHg 67%
    10:00 +7°C° 0 mm 1 mps 587 mmHg 59%
    11:00 +8°C° 0.1 mm 1 mps 588 mmHg 56%
    12:00 +9°C° 0.1 mm 1 mps 588 mmHg 53%
    13:00 +10°C° 0.1 mm 1 mps 588 mmHg 50%
    14:00 +9°C° 0.3 mm 1 mps 588 mmHg 50%
    15:00 +9°C° 0.3 mm 1 mps 587 mmHg 51%
    16:00 +9°C° 0.3 mm 1 mps 587 mmHg 51%
    17:00 +7°C° 0.3 mm 1 mps 586 mmHg 61%
    18:00 +5°C° 0.3 mm 1 mps 585 mmHg 71%
    19:00 +3°C° 0.3 mm 1 mps 584 mmHg 81%
    20:00 +2°C° 0 mm 1 mps 584 mmHg 82%
    21:00 +2°C° 0 mm 1 mps 584 mmHg 84%
    22:00 +1°C° 0 mm 1 mps 584 mmHg 86%
    23:00 +1°C° 0 mm 1 mps 584 mmHg 86%

    10 April, Friday

    Time Temperature Precipitation Wind Pressure Humidity
    00:00 +1°C° 0 mm 1 mps 584 mmHg 87%
    01:00 0°C° 0 mm 1 mps 584 mmHg 87%
    02:00 0°C° 0 mm 1 mps 584 mmHg 87%
    03:00 0°C° 0 mm 1 mps 584 mmHg 87%
    04:00 0°C° 0 mm 1 mps 584 mmHg 87%
    05:00 0°C° 0 mm 0 mps 584 mmHg 84%
    06:00 0°C° 0 mm 0 mps 585 mmHg 81%
    07:00 +1°C° 0 mm 0 mps 585 mmHg 78%
    08:00 +4°C° 0 mm 1 mps 586 mmHg 71%
    09:00 +6°C° 0 mm 1 mps 587 mmHg 64%
    10:00 +8°C° 0 mm 1 mps 587 mmHg 57%
    11:00 +9°C° 0 mm 1 mps 587 mmHg 54%
    12:00 +9°C° 0 mm 1 mps 588 mmHg 51%
    13:00 +9°C° 0 mm 2 mps 588 mmHg 48%
    14:00 +9°C° 0.1 mm 2 mps 587 mmHg 49%
    15:00 +9°C° 0.1 mm 2 mps 587 mmHg 50%
    16:00 +8°C° 0.1 mm 2 mps 587 mmHg 52%
    17:00 +8°C° 0.1 mm 1 mps 586 mmHg 60%
    18:00 +6°C° 0.1 mm 1 mps 585 mmHg 69%
    19:00 +4°C° 0.1 mm 1 mps 584 mmHg 77%
    20:00 +3°C° 0 mm 1 mps 584 mmHg 79%
    21:00 +3°C° 0 mm 1 mps 584 mmHg 81%
    22:00 +1°C° 0 mm 0 mps 584 mmHg 83%
    23:00 +1°C° 0 mm 0 mps 584 mmHg 84%

    11 April, Saturday

    Time Temperature Precipitation Wind Pressure Humidity
    00:00 0°C° 0 mm 0 mps 584 mmHg 85%
    01:00 0°C° 0 mm 0 mps 584 mmHg 86%
    02:00 0°C° 0 mm 0 mps 583 mmHg 86%
    03:00 0°C° 0 mm 0 mps 583 mmHg 87%
    04:00 -1°C° 0 mm 0 mps 583 mmHg 87%
    05:00 0°C° 0 mm 0 mps 583 mmHg 84%
    06:00 +1°C° 0 mm 0 mps 584 mmHg 81%
    07:00 +2°C° 0 mm 0 mps 584 mmHg 77%
    08:00 +5°C° 0 mm 1 mps 585 mmHg 71%
    09:00 +6°C° 0 mm 1 mps 586 mmHg 65%
    10:00 +8°C° 0 mm 1 mps 587 mmHg 59%
    11:00 +9°C° 0.1 mm 1 mps 587 mmHg 57%
    12:00 +8°C° 0.1 mm 2 mps 587 mmHg 55%
    13:00 +9°C° 0.1 mm 2 mps 587 mmHg 53%
    14:00 +9°C° 0.2 mm 2 mps 586 mmHg 53%
    15:00 +8°C° 0.2 mm 2 mps 586 mmHg 54%
    16:00 +8°C° 0.2 mm 2 mps 586 mmHg 54%
    17:00 +6°C° 0.2 mm 2 mps 585 mmHg 64%
    18:00 +6°C° 0.2 mm 1 mps 584 mmHg 73%
    19:00 +4°C° 0.2 mm 1 mps 583 mmHg 83%
    20:00 +3°C° 0.1 mm 1 mps 583 mmHg 85%
    21:00 +3°C° 0.1 mm 1 mps 584 mmHg 87%
    22:00 +1°C° 0.1 mm 0 mps 584 mmHg 90%
    23:00 +1°C° 0.1 mm 0 mps 584 mmHg 90%
    Show more